Year,Month,Day,Hour,Minute,Value (Times are PST for temperature in C)
2015,03,18,00,00,9.00
2015,03,18,00,01,9.00
2015,03,18,00,02,9.00
2015,03,18,00,03,9.00
2015,03,18,00,04,9.00
2015,03,18,00,05,9.00
2015,03,18,00,06,9.00
2015,03,18,00,07,9.00
2015,03,18,00,08,9.00
2015,03,18,00,09,8.90
2015,03,18,00,10,8.90
2015,03,18,00,11,8.90
2015,03,18,00,12,8.90
2015,03,18,00,13,8.90
2015,03,18,00,14,8.90
2015,03,18,00,15,8.90
2015,03,18,00,16,8.80
2015,03,18,00,17,8.80
2015,03,18,00,18,8.80
2015,03,18,00,19,8.80
2015,03,18,00,20,8.80
2015,03,18,00,21,8.80
2015,03,18,00,22,8.90
2015,03,18,00,23,8.90
2015,03,18,00,24,8.90
2015,03,18,00,25,8.80
2015,03,18,00,26,8.80
2015,03,18,00,27,8.80
2015,03,18,00,28,8.80
2015,03,18,00,29,8.80
2015,03,18,00,30,8.80
2015,03,18,00,31,8.80
2015,03,18,00,32,8.80
2015,03,18,00,33,8.80
2015,03,18,00,34,8.80
2015,03,18,00,35,8.80
2015,03,18,00,36,8.80
2015,03,18,00,37,8.80
2015,03,18,00,38,8.80
2015,03,18,00,39,8.80
2015,03,18,00,40,8.80
2015,03,18,00,41,8.80
2015,03,18,00,42,8.80
2015,03,18,00,43,8.80
2015,03,18,00,44,8.70
2015,03,18,00,45,8.70
2015,03,18,00,46,8.70
2015,03,18,00,47,8.70
2015,03,18,00,48,8.70
2015,03,18,00,49,8.70
2015,03,18,00,50,8.70
2015,03,18,00,51,8.70
2015,03,18,00,52,8.70
2015,03,18,00,53,8.70
2015,03,18,00,54,8.70
2015,03,18,00,55,8.70
2015,03,18,00,56,8.70
2015,03,18,00,57,8.70
2015,03,18,00,58,8.70
2015,03,18,00,59,8.70
2015,03,18,01,00,8.60
2015,03,18,01,01,8.60
2015,03,18,01,02,8.60
2015,03,18,01,03,8.60
2015,03,18,01,04,8.60
2015,03,18,01,05,8.60
2015,03,18,01,06,8.60
2015,03,18,01,07,8.60
2015,03,18,01,08,8.60
2015,03,18,01,09,8.60
2015,03,18,01,10,8.60
2015,03,18,01,11,8.50
2015,03,18,01,12,8.50
2015,03,18,01,13,8.50
2015,03,18,01,14,8.50
2015,03,18,01,15,8.50
2015,03,18,01,16,8.40
2015,03,18,01,17,8.40
2015,03,18,01,18,8.40
2015,03,18,01,19,8.40
2015,03,18,01,20,8.40
2015,03,18,01,21,8.40
2015,03,18,01,22,8.30
2015,03,18,01,23,8.30
2015,03,18,01,24,8.30
2015,03,18,01,25,8.30
2015,03,18,01,26,8.30
2015,03,18,01,27,8.30
2015,03,18,01,28,8.30
2015,03,18,01,29,8.30
2015,03,18,01,30,8.30
2015,03,18,01,31,8.30
2015,03,18,01,32,8.30
2015,03,18,01,33,8.30
2015,03,18,01,34,8.30
2015,03,18,01,35,8.30
2015,03,18,01,36,8.30
2015,03,18,01,37,8.30
2015,03,18,01,38,8.30
2015,03,18,01,39,8.30
2015,03,18,01,40,8.30
2015,03,18,01,41,8.30
2015,03,18,01,42,8.30
2015,03,18,01,43,8.30
2015,03,18,01,44,8.30
2015,03,18,01,45,8.30
2015,03,18,01,46,8.30
2015,03,18,01,47,8.30
2015,03,18,01,48,8.30
2015,03,18,01,49,8.20
2015,03,18,01,50,8.20
2015,03,18,01,51,8.20
2015,03,18,01,52,8.20
2015,03,18,01,53,8.20
2015,03,18,01,54,8.10
2015,03,18,01,55,8.10
2015,03,18,01,56,8.10
2015,03,18,01,57,8.10
2015,03,18,01,58,8.10
2015,03,18,01,59,8.00
2015,03,18,02,00,8.00
2015,03,18,02,01,8.00
2015,03,18,02,02,8.00
2015,03,18,02,03,8.00
2015,03,18,02,04,7.90
2015,03,18,02,05,7.90
2015,03,18,02,06,7.90
2015,03,18,02,07,7.90
2015,03,18,02,08,7.90
2015,03,18,02,09,7.90
2015,03,18,02,10,7.90
2015,03,18,02,11,7.80
2015,03,18,02,12,7.80
2015,03,18,02,13,7.80
2015,03,18,02,14,7.80
2015,03,18,02,15,7.80
2015,03,18,02,16,7.90
2015,03,18,02,17,7.90
2015,03,18,02,18,7.90
2015,03,18,02,19,7.90
2015,03,18,02,20,7.90
2015,03,18,02,21,7.90
2015,03,18,02,22,7.90
2015,03,18,02,23,7.90
2015,03,18,02,24,8.00
2015,03,18,02,25,8.00
2015,03,18,02,26,7.90
2015,03,18,02,27,7.90
2015,03,18,02,28,7.90
2015,03,18,02,29,7.90
2015,03,18,02,30,7.90
2015,03,18,02,31,7.90
2015,03,18,02,32,7.90
2015,03,18,02,33,7.90
2015,03,18,02,34,7.90
2015,03,18,02,35,7.90
2015,03,18,02,36,7.90
2015,03,18,02,37,7.90
2015,03,18,02,38,7.90
2015,03,18,02,39,7.90
2015,03,18,02,40,7.90
2015,03,18,02,41,8.00
2015,03,18,02,42,8.00
2015,03,18,02,43,8.00
2015,03,18,02,44,8.00
2015,03,18,02,45,8.00
2015,03,18,02,46,8.10
2015,03,18,02,47,8.10
2015,03,18,02,48,8.10
2015,03,18,02,49,8.10
2015,03,18,02,50,8.10
2015,03,18,02,51,8.10
2015,03,18,02,52,8.10
2015,03,18,02,53,8.10
2015,03,18,02,54,8.10
2015,03,18,02,55,8.10
2015,03,18,02,56,8.10
2015,03,18,02,57,8.10
2015,03,18,02,58,8.10
2015,03,18,02,59,8.10
2015,03,18,03,00,8.10
2015,03,18,03,01,8.10
2015,03,18,03,02,8.10
2015,03,18,03,03,8.10
2015,03,18,03,04,8.10
2015,03,18,03,05,8.10
2015,03,18,03,06,8.10
2015,03,18,03,07,8.10
2015,03,18,03,08,8.10
2015,03,18,03,09,8.10
2015,03,18,03,10,8.10
2015,03,18,03,11,8.10
2015,03,18,03,12,8.10
2015,03,18,03,13,8.00
2015,03,18,03,14,8.00
2015,03,18,03,15,8.00
2015,03,18,03,16,8.00
2015,03,18,03,17,8.10
2015,03,18,03,18,8.10
2015,03,18,03,19,8.10
2015,03,18,03,20,8.10
2015,03,18,03,21,8.10
2015,03,18,03,22,8.10
2015,03,18,03,23,8.20
2015,03,18,03,24,8.20
2015,03,18,03,25,8.20
2015,03,18,03,26,8.10
2015,03,18,03,27,8.10
2015,03,18,03,28,8.10
2015,03,18,03,29,8.10
2015,03,18,03,30,8.10
2015,03,18,03,31,8.10
2015,03,18,03,32,8.00
2015,03,18,03,33,8.00
2015,03,18,03,34,8.00
2015,03,18,03,35,7.90
2015,03,18,03,36,7.90
2015,03,18,03,37,7.90
2015,03,18,03,38,7.90
2015,03,18,03,39,7.80
2015,03,18,03,40,7.80
2015,03,18,03,41,7.80
2015,03,18,03,42,7.80
2015,03,18,03,43,7.80
2015,03,18,03,44,7.80
2015,03,18,03,45,7.70
2015,03,18,03,46,7.80
2015,03,18,03,47,7.80
2015,03,18,03,48,7.80
2015,03,18,03,49,7.80
2015,03,18,03,50,7.80
2015,03,18,03,51,7.80
2015,03,18,03,52,7.80
2015,03,18,03,53,7.80
2015,03,18,03,54,7.80
2015,03,18,03,55,7.80
2015,03,18,03,56,7.80
2015,03,18,03,57,7.80
2015,03,18,03,58,7.80
2015,03,18,03,59,7.80
2015,03,18,04,00,7.80
2015,03,18,04,01,7.80
2015,03,18,04,02,7.80
2015,03,18,04,03,7.80
2015,03,18,04,04,7.80
2015,03,18,04,05,7.80
2015,03,18,04,06,7.80
2015,03,18,04,07,7.80
2015,03,18,04,08,7.80
2015,03,18,04,09,7.80
2015,03,18,04,10,7.80
2015,03,18,04,11,7.80
2015,03,18,04,12,7.80
2015,03,18,04,13,7.70
2015,03,18,04,14,7.70
2015,03,18,04,15,7.70
2015,03,18,04,16,7.70
2015,03,18,04,17,7.70
2015,03,18,04,18,7.70
2015,03,18,04,19,7.70
2015,03,18,04,20,7.70
2015,03,18,04,21,7.70
2015,03,18,04,22,7.70
2015,03,18,04,23,7.70
2015,03,18,04,24,7.70
2015,03,18,04,25,7.70
2015,03,18,04,26,7.70
2015,03,18,04,27,7.70
2015,03,18,04,28,7.70
2015,03,18,04,29,7.70
2015,03,18,04,30,7.70
2015,03,18,04,31,7.70
2015,03,18,04,32,7.70
2015,03,18,04,33,7.60
2015,03,18,04,34,7.60
2015,03,18,04,35,7.60
2015,03,18,04,36,7.60
2015,03,18,04,37,7.60
2015,03,18,04,38,7.60
2015,03,18,04,39,7.60
2015,03,18,04,40,7.60
2015,03,18,04,41,7.50
2015,03,18,04,42,7.50
2015,03,18,04,43,7.50
2015,03,18,04,44,7.50
2015,03,18,04,45,7.40
2015,03,18,04,46,7.40
2015,03,18,04,47,7.40
2015,03,18,04,48,7.40
2015,03,18,04,49,7.40
2015,03,18,04,50,7.40
2015,03,18,04,51,7.40
2015,03,18,04,52,7.40
2015,03,18,04,53,7.40
2015,03,18,04,54,7.40
2015,03,18,04,55,7.40
2015,03,18,04,56,7.40
2015,03,18,04,57,7.40
2015,03,18,04,58,7.40
2015,03,18,04,59,7.40
2015,03,18,05,00,7.40
2015,03,18,05,01,7.40
2015,03,18,05,02,7.40
2015,03,18,05,03,7.40
2015,03,18,05,04,7.40
2015,03,18,05,05,7.40
2015,03,18,05,06,7.40
2015,03,18,05,07,7.40
2015,03,18,05,08,7.40
2015,03,18,05,09,7.40
2015,03,18,05,10,7.40
2015,03,18,05,11,7.40
2015,03,18,05,12,7.40
2015,03,18,05,13,7.40
2015,03,18,05,14,7.40
2015,03,18,05,15,7.40
2015,03,18,05,16,7.40
2015,03,18,05,17,7.40
2015,03,18,05,18,7.40
2015,03,18,05,19,7.40
2015,03,18,05,20,7.30
2015,03,18,05,21,7.30
2015,03,18,05,22,7.30
2015,03,18,05,23,7.30
2015,03,18,05,24,7.30
2015,03,18,05,25,7.30
2015,03,18,05,26,7.30
2015,03,18,05,27,7.30
2015,03,18,05,28,7.30
2015,03,18,05,29,7.30
2015,03,18,05,30,7.30
2015,03,18,05,31,7.30
2015,03,18,05,32,7.30
2015,03,18,05,33,7.30
2015,03,18,05,34,7.30
2015,03,18,05,35,7.30
2015,03,18,05,36,7.30
2015,03,18,05,37,7.30
2015,03,18,05,38,7.30
2015,03,18,05,39,7.30
2015,03,18,05,40,7.30
2015,03,18,05,41,7.30
2015,03,18,05,42,7.30
2015,03,18,05,43,7.30
2015,03,18,05,44,7.30
2015,03,18,05,45,7.30
2015,03,18,05,46,7.30
2015,03,18,05,47,7.30
2015,03,18,05,48,7.40
2015,03,18,05,49,7.40
2015,03,18,05,50,7.40
2015,03,18,05,51,7.30
2015,03,18,05,52,7.30
2015,03,18,05,53,7.30
2015,03,18,05,54,7.30
2015,03,18,05,55,7.30
2015,03,18,05,56,7.30
2015,03,18,05,57,7.30
2015,03,18,05,58,7.30
2015,03,18,05,59,7.30
2015,03,18,06,00,7.30
2015,03,18,06,01,7.30
2015,03,18,06,02,7.20
2015,03,18,06,03,7.20
2015,03,18,06,04,7.20
2015,03,18,06,05,7.20
2015,03,18,06,06,7.20
2015,03,18,06,07,7.20
2015,03,18,06,08,7.20
2015,03,18,06,09,7.20
2015,03,18,06,10,7.20
2015,03,18,06,11,7.20
2015,03,18,06,12,7.20
2015,03,18,06,13,7.20
2015,03,18,06,14,7.20
2015,03,18,06,15,7.20
2015,03,18,06,16,7.20
2015,03,18,06,17,7.20
2015,03,18,06,18,7.20
2015,03,18,06,19,7.20
2015,03,18,06,20,7.20
2015,03,18,06,21,7.20
2015,03,18,06,22,7.20
2015,03,18,06,23,7.20
2015,03,18,06,24,7.20
2015,03,18,06,25,7.20
2015,03,18,06,26,7.20
2015,03,18,06,27,7.20
2015,03,18,06,28,7.20
2015,03,18,06,29,7.20
2015,03,18,06,30,7.20
2015,03,18,06,31,7.20
2015,03,18,06,32,7.20
2015,03,18,06,33,7.20
2015,03,18,06,34,7.20
2015,03,18,06,35,7.20
2015,03,18,06,36,7.20
2015,03,18,06,37,7.10
2015,03,18,06,38,7.10
2015,03,18,06,39,7.10
2015,03,18,06,40,7.10
2015,03,18,06,41,7.10
2015,03,18,06,42,7.10
2015,03,18,06,43,7.10
2015,03,18,06,44,7.10
2015,03,18,06,45,7.00
2015,03,18,06,46,7.00
2015,03,18,06,47,7.00
2015,03,18,06,48,7.00
2015,03,18,06,49,6.90
2015,03,18,06,50,6.90
2015,03,18,06,51,6.90
2015,03,18,06,52,6.90
2015,03,18,06,53,6.90
2015,03,18,06,54,6.90
2015,03,18,06,55,6.90
2015,03,18,06,56,6.90
2015,03,18,06,57,6.90
2015,03,18,06,58,6.90
2015,03,18,06,59,6.90
2015,03,18,07,00,6.90
2015,03,18,07,01,6.90
2015,03,18,07,02,6.90
2015,03,18,07,03,6.90
2015,03,18,07,04,6.90
2015,03,18,07,05,7.00
2015,03,18,07,06,7.00
2015,03,18,07,07,7.00
2015,03,18,07,08,7.00
2015,03,18,07,09,7.00
2015,03,18,07,10,7.00
2015,03,18,07,11,7.00
2015,03,18,07,12,6.90
2015,03,18,07,13,6.90
2015,03,18,07,14,6.90
2015,03,18,07,15,6.90
2015,03,18,07,16,6.90
2015,03,18,07,17,6.90
2015,03,18,07,18,6.90
2015,03,18,07,19,6.90
2015,03,18,07,20,6.90
2015,03,18,07,21,6.90
2015,03,18,07,22,6.90
2015,03,18,07,23,6.90
2015,03,18,07,24,6.90
2015,03,18,07,25,6.90
2015,03,18,07,26,6.90
2015,03,18,07,27,6.80
2015,03,18,07,28,6.80
2015,03,18,07,29,6.80
2015,03,18,07,30,6.80
2015,03,18,07,31,6.80
2015,03,18,07,32,6.80
2015,03,18,07,33,6.80
2015,03,18,07,34,6.80
2015,03,18,07,35,6.80
2015,03,18,07,36,6.80
2015,03,18,07,37,6.80
2015,03,18,07,38,6.80
2015,03,18,07,39,6.90
2015,03,18,07,40,6.90
2015,03,18,07,41,6.80
2015,03,18,07,42,6.80
2015,03,18,07,43,6.90
2015,03,18,07,44,6.90
2015,03,18,07,45,6.90
2015,03,18,07,46,6.90
2015,03,18,07,47,6.90
2015,03,18,07,48,6.90
2015,03,18,07,49,6.80
2015,03,18,07,50,6.80
2015,03,18,07,51,6.80
2015,03,18,07,52,6.80
2015,03,18,07,53,6.80
2015,03,18,07,54,6.80
2015,03,18,07,55,6.80
2015,03,18,07,56,6.80
2015,03,18,07,57,6.80
2015,03,18,07,58,6.80
2015,03,18,07,59,6.80
2015,03,18,08,00,6.80
2015,03,18,08,01,6.70
2015,03,18,08,02,6.70
2015,03,18,08,03,6.60
2015,03,18,08,04,6.50
2015,03,18,08,05,6.40
2015,03,18,08,06,6.40
2015,03,18,08,07,6.30
2015,03,18,08,08,6.30
2015,03,18,08,09,6.20
2015,03,18,08,10,6.20
2015,03,18,08,11,6.20
2015,03,18,08,12,6.20
2015,03,18,08,13,6.20
2015,03,18,08,14,6.20
2015,03,18,08,15,6.20
2015,03,18,08,16,6.20
2015,03,18,08,17,6.20
2015,03,18,08,18,6.10
2015,03,18,08,19,6.20
2015,03,18,08,20,6.20
2015,03,18,08,21,6.20
2015,03,18,08,22,6.20
2015,03,18,08,23,6.20
2015,03,18,08,24,6.20
2015,03,18,08,25,6.20
2015,03,18,08,26,6.20
2015,03,18,08,27,6.20
2015,03,18,08,28,6.30
2015,03,18,08,29,6.30
2015,03,18,08,30,6.30
2015,03,18,08,31,6.40
2015,03,18,08,32,6.40
2015,03,18,08,33,6.50
2015,03,18,08,34,6.50
2015,03,18,08,35,6.60
2015,03,18,08,36,6.60
2015,03,18,08,37,6.60
2015,03,18,08,38,6.70
2015,03,18,08,39,6.70
2015,03,18,08,40,6.70
2015,03,18,08,41,6.80
2015,03,18,08,42,6.80
2015,03,18,08,43,6.90
2015,03,18,08,44,6.90
2015,03,18,08,45,6.90
2015,03,18,08,46,7.00
2015,03,18,08,47,7.00
2015,03,18,08,48,7.00
2015,03,18,08,49,7.10
2015,03,18,08,50,7.10
2015,03,18,08,51,7.10
2015,03,18,08,52,7.20
2015,03,18,08,53,7.20
2015,03,18,08,54,7.20
2015,03,18,08,55,7.30
2015,03,18,08,56,7.30
2015,03,18,08,57,7.30
2015,03,18,08,58,7.40
2015,03,18,08,59,7.40
2015,03,18,09,00,7.40
2015,03,18,09,01,7.50
2015,03,18,09,02,7.50
2015,03,18,09,03,7.50
2015,03,18,09,04,7.60
2015,03,18,09,05,7.60
2015,03,18,09,06,7.60
2015,03,18,09,07,7.60
2015,03,18,09,08,7.60
2015,03,18,09,09,7.80
2015,03,18,09,10,7.80
2015,03,18,09,11,7.80
2015,03,18,09,12,7.80
2015,03,18,09,13,7.80
2015,03,18,09,14,7.90
2015,03,18,09,15,7.90
2015,03,18,09,16,7.90
2015,03,18,09,17,8.00
2015,03,18,09,18,8.00
2015,03,18,09,19,8.10
2015,03,18,09,20,8.10
2015,03,18,09,21,8.20
2015,03,18,09,22,8.20
2015,03,18,09,23,8.20
2015,03,18,09,24,8.30
2015,03,18,09,25,8.30
2015,03,18,09,26,8.30
2015,03,18,09,27,8.40
2015,03,18,09,28,8.40
2015,03,18,09,29,8.40
2015,03,18,09,30,8.40
2015,03,18,09,31,8.40
2015,03,18,09,32,8.50
2015,03,18,09,33,8.50
2015,03,18,09,34,8.50
2015,03,18,09,35,8.60
2015,03,18,09,36,8.60
2015,03,18,09,37,8.70
2015,03,18,09,38,8.80
2015,03,18,09,39,8.90
2015,03,18,09,40,9.00
2015,03,18,09,41,9.00
2015,03,18,09,42,9.10
2015,03,18,09,43,9.20
2015,03,18,09,44,9.30
2015,03,18,09,45,9.40
2015,03,18,09,46,9.50
2015,03,18,09,47,9.50
2015,03,18,09,48,9.60
2015,03,18,09,49,9.70
2015,03,18,09,50,9.70
2015,03,18,09,51,9.80
2015,03,18,09,52,9.90
2015,03,18,09,53,9.90
2015,03,18,09,54,10.00
2015,03,18,09,55,10.10
2015,03,18,09,56,10.10
2015,03,18,09,57,10.10
2015,03,18,09,58,10.20
2015,03,18,09,59,10.20
2015,03,18,10,00,10.20
2015,03,18,10,01,10.30
2015,03,18,10,02,10.30
2015,03,18,10,03,10.30
2015,03,18,10,04,10.30
2015,03,18,10,05,10.30
2015,03,18,10,06,10.30
2015,03,18,10,07,10.30
2015,03,18,10,08,10.20
2015,03,18,10,09,10.30
2015,03,18,10,10,10.30
2015,03,18,10,11,10.30
2015,03,18,10,12,10.30
2015,03,18,10,13,10.30
2015,03,18,10,14,10.30
2015,03,18,10,15,10.30
2015,03,18,10,16,10.30
2015,03,18,10,17,10.30
2015,03,18,10,18,10.30
2015,03,18,10,19,10.20
2015,03,18,10,20,10.20
2015,03,18,10,21,10.30
2015,03,18,10,22,10.30
2015,03,18,10,23,10.40
2015,03,18,10,24,10.40
2015,03,18,10,25,10.50
2015,03,18,10,26,10.50
2015,03,18,10,27,10.60
2015,03,18,10,28,10.60
2015,03,18,10,29,10.60
2015,03,18,10,30,10.70
2015,03,18,10,31,10.70
2015,03,18,10,32,10.80
2015,03,18,10,33,10.80
2015,03,18,10,34,10.80
2015,03,18,10,35,10.80
2015,03,18,10,36,10.80
2015,03,18,10,37,10.80
2015,03,18,10,38,10.80
2015,03,18,10,39,10.80
2015,03,18,10,40,10.70
2015,03,18,10,41,10.70
2015,03,18,10,42,10.70
2015,03,18,10,43,10.60
2015,03,18,10,44,10.60
2015,03,18,10,45,10.60
2015,03,18,10,46,10.60
2015,03,18,10,47,10.60
2015,03,18,10,48,10.60
2015,03,18,10,49,10.50
2015,03,18,10,50,10.50
2015,03,18,10,51,10.50
2015,03,18,10,52,10.50
2015,03,18,10,53,10.40
2015,03,18,10,54,10.40
2015,03,18,10,55,10.30
2015,03,18,10,56,10.30
2015,03,18,10,57,10.30
2015,03,18,10,58,10.20
2015,03,18,10,59,10.20
2015,03,18,11,00,10.20
2015,03,18,11,01,10.20
2015,03,18,11,02,10.20
2015,03,18,11,03,10.20
2015,03,18,11,04,10.20
2015,03,18,11,05,10.10
2015,03,18,11,06,10.10
2015,03,18,11,07,10.10
2015,03,18,11,08,10.10
2015,03,18,11,09,10.10
2015,03,18,11,10,10.10
2015,03,18,11,11,10.10
2015,03,18,11,12,10.10
2015,03,18,11,13,10.10
2015,03,18,11,14,10.00
2015,03,18,11,15,10.00
2015,03,18,11,16,10.00
2015,03,18,11,17,10.00
2015,03,18,11,18,10.00
2015,03,18,11,19,10.00
2015,03,18,11,20,9.90
2015,03,18,11,21,10.00
2015,03,18,11,22,10.00
2015,03,18,11,23,10.00
2015,03,18,11,24,10.10
2015,03,18,11,25,10.10
2015,03,18,11,26,10.10
2015,03,18,11,27,10.20
2015,03,18,11,28,10.20
2015,03,18,11,29,10.20
2015,03,18,11,30,10.20
2015,03,18,11,31,10.20
2015,03,18,11,32,10.10
2015,03,18,11,33,10.10
2015,03,18,11,34,10.00
2015,03,18,11,35,10.00
2015,03,18,11,36,10.10
2015,03,18,11,37,10.10
2015,03,18,11,38,10.10
2015,03,18,11,39,10.10
2015,03,18,11,40,10.10
2015,03,18,11,41,10.10
2015,03,18,11,42,10.20
2015,03,18,11,43,10.20
2015,03,18,11,44,10.20
2015,03,18,11,45,10.20
2015,03,18,11,46,10.20
2015,03,18,11,47,10.20
2015,03,18,11,48,10.20
2015,03,18,11,49,10.20
2015,03,18,11,50,10.20
2015,03,18,11,51,10.20
2015,03,18,11,52,10.30
2015,03,18,11,53,10.40
2015,03,18,11,54,10.40
2015,03,18,11,55,10.50
2015,03,18,11,56,10.50
2015,03,18,11,57,10.60
2015,03,18,11,58,10.60
2015,03,18,11,59,10.50
2015,03,18,12,00,10.60
2015,03,18,12,01,10.60
2015,03,18,12,02,10.60
2015,03,18,12,03,10.70
2015,03,18,12,04,10.70
2015,03,18,12,05,10.70
2015,03,18,12,06,10.70
2015,03,18,12,07,10.70
2015,03,18,12,08,10.80
2015,03,18,12,09,10.80
2015,03,18,12,10,10.80
2015,03,18,12,11,10.90
2015,03,18,12,12,10.90
2015,03,18,12,13,11.00
2015,03,18,12,14,11.10
2015,03,18,12,15,11.10
2015,03,18,12,16,11.10
2015,03,18,12,17,11.20
2015,03,18,12,18,11.20
2015,03,18,12,19,11.20
2015,03,18,12,20,11.20
2015,03,18,12,21,11.20
2015,03,18,12,22,11.20
2015,03,18,12,23,11.20
2015,03,18,12,24,11.20
2015,03,18,12,25,11.20
2015,03,18,12,26,11.20
2015,03,18,12,27,11.20
2015,03,18,12,28,11.20
2015,03,18,12,29,11.10
2015,03,18,12,30,11.10
2015,03,18,12,31,11.10
2015,03,18,12,32,11.20
2015,03,18,12,33,11.20
2015,03,18,12,34,11.10
2015,03,18,12,35,11.10
2015,03,18,12,36,11.10
2015,03,18,12,37,11.10
2015,03,18,12,38,11.10
2015,03,18,12,39,11.00
2015,03,18,12,40,11.00
2015,03,18,12,41,11.00
2015,03,18,12,42,11.10
2015,03,18,12,43,11.10
2015,03,18,12,44,11.10
2015,03,18,12,45,11.20
2015,03,18,12,46,11.20
2015,03,18,12,47,11.30
2015,03,18,12,48,11.30
2015,03,18,12,49,11.30
2015,03,18,12,50,11.20
2015,03,18,12,51,11.20
2015,03,18,12,52,11.20
2015,03,18,12,53,11.20
2015,03,18,12,54,11.20
2015,03,18,12,55,11.20
2015,03,18,12,56,11.20
2015,03,18,12,57,11.10
2015,03,18,12,58,11.10
2015,03,18,12,59,11.00
2015,03,18,13,00,11.00
2015,03,18,13,01,11.00
2015,03,18,13,02,11.00
2015,03,18,13,03,11.10
2015,03,18,13,04,11.10
2015,03,18,13,05,11.20
2015,03,18,13,06,11.20
2015,03,18,13,07,11.20
2015,03,18,13,08,11.20
2015,03,18,13,09,11.20
2015,03,18,13,10,11.10
2015,03,18,13,11,11.00
2015,03,18,13,12,10.90
2015,03,18,13,13,10.90
2015,03,18,13,14,10.90
2015,03,18,13,15,11.00
2015,03,18,13,16,11.10
2015,03,18,13,17,11.10
2015,03,18,13,18,11.10
2015,03,18,13,19,11.20
2015,03,18,13,20,11.20
2015,03,18,13,21,11.20
2015,03,18,13,22,11.20
2015,03,18,13,23,11.20
2015,03,18,13,24,11.20
2015,03,18,13,25,11.20
2015,03,18,13,26,11.30
2015,03,18,13,27,11.30
2015,03,18,13,28,11.30
2015,03,18,13,29,11.30
2015,03,18,13,30,11.30
2015,03,18,13,31,11.30
2015,03,18,13,32,11.40
2015,03,18,13,33,11.40
2015,03,18,13,34,11.40
2015,03,18,13,35,11.40
2015,03,18,13,36,11.40
2015,03,18,13,37,11.40
2015,03,18,13,38,11.40
2015,03,18,13,39,11.40
2015,03,18,13,40,11.40
2015,03,18,13,41,11.40
2015,03,18,13,42,11.50
2015,03,18,13,43,11.50
2015,03,18,13,44,11.60
2015,03,18,13,45,11.60
2015,03,18,13,46,11.70
2015,03,18,13,47,11.70
2015,03,18,13,48,11.70
2015,03,18,13,49,11.60
2015,03,18,13,50,11.60
2015,03,18,13,51,11.60
2015,03,18,13,52,11.60
2015,03,18,13,53,11.60
2015,03,18,13,54,11.70
2015,03,18,13,55,11.80
2015,03,18,13,56,11.80
2015,03,18,13,57,11.90
2015,03,18,13,58,11.80
2015,03,18,13,59,11.80
2015,03,18,14,00,11.80
2015,03,18,14,01,11.80
2015,03,18,14,02,11.80
2015,03,18,14,03,11.90
2015,03,18,14,04,11.90
2015,03,18,14,05,11.90
2015,03,18,14,06,11.80
2015,03,18,14,07,11.80
2015,03,18,14,08,11.70
2015,03,18,14,09,11.70
2015,03,18,14,10,11.80
2015,03,18,14,11,11.90
2015,03,18,14,12,11.90
2015,03,18,14,13,12.00
2015,03,18,14,14,12.00
2015,03,18,14,15,12.00
2015,03,18,14,16,11.90
2015,03,18,14,17,12.00
2015,03,18,14,18,12.00
2015,03,18,14,19,12.00
2015,03,18,14,20,12.10
2015,03,18,14,21,12.10
2015,03,18,14,22,12.10
2015,03,18,14,23,12.10
2015,03,18,14,24,12.10
2015,03,18,14,25,12.10
2015,03,18,14,26,12.10
2015,03,18,14,27,12.10
2015,03,18,14,28,12.20
2015,03,18,14,29,12.20
2015,03,18,14,30,12.20
2015,03,18,14,31,12.30
2015,03,18,14,32,12.30
2015,03,18,14,33,12.30
2015,03,18,14,34,12.30
2015,03,18,14,35,12.30
2015,03,18,14,36,12.30
2015,03,18,14,37,12.30
2015,03,18,14,38,12.30
2015,03,18,14,39,12.30
2015,03,18,14,40,12.40
2015,03,18,14,41,12.40
2015,03,18,14,42,12.50
2015,03,18,14,43,12.50
2015,03,18,14,44,12.50
2015,03,18,14,45,12.50
2015,03,18,14,46,12.40
2015,03,18,14,47,12.40
2015,03,18,14,48,12.40
2015,03,18,14,49,12.40
2015,03,18,14,50,12.50
2015,03,18,14,51,12.50
2015,03,18,14,52,12.50
2015,03,18,14,53,12.60
2015,03,18,14,54,12.60
2015,03,18,14,55,12.60
2015,03,18,14,56,12.60
2015,03,18,14,57,12.60
2015,03,18,14,58,12.60
2015,03,18,14,59,12.60
2015,03,18,15,00,12.70
2015,03,18,15,01,12.70
2015,03,18,15,02,12.80
2015,03,18,15,03,12.90
2015,03,18,15,04,12.90
2015,03,18,15,05,13.00
2015,03,18,15,06,13.10
2015,03,18,15,07,13.10
2015,03,18,15,08,13.20
2015,03,18,15,09,13.30
2015,03,18,15,10,13.30
2015,03,18,15,11,13.30
2015,03,18,15,12,13.20
2015,03,18,15,13,13.20
2015,03,18,15,14,13.20
2015,03,18,15,15,13.20
2015,03,18,15,16,13.20
2015,03,18,15,17,13.20
2015,03,18,15,18,13.20
2015,03,18,15,19,13.20
2015,03,18,15,20,13.20
2015,03,18,15,21,13.20
2015,03,18,15,22,13.20
2015,03,18,15,23,13.30
2015,03,18,15,24,13.30
2015,03,18,15,25,13.30
2015,03,18,15,26,13.30
2015,03,18,15,27,13.30
2015,03,18,15,28,13.30
2015,03,18,15,29,13.20
2015,03,18,15,30,13.20
2015,03,18,15,31,13.20
2015,03,18,15,32,13.20
2015,03,18,15,33,13.20
2015,03,18,15,34,13.20
2015,03,18,15,35,13.20
2015,03,18,15,36,13.20
2015,03,18,15,37,13.20
2015,03,18,15,38,13.20
2015,03,18,15,39,13.10
2015,03,18,15,40,13.10
2015,03,18,15,41,13.10
2015,03,18,15,42,13.10
2015,03,18,15,43,13.00
2015,03,18,15,44,13.00
2015,03,18,15,45,12.90
2015,03,18,15,46,12.90
2015,03,18,15,47,12.90
2015,03,18,15,48,12.90
2015,03,18,15,49,12.90
2015,03,18,15,50,12.90
2015,03,18,15,51,12.90
2015,03,18,15,52,12.90
2015,03,18,15,53,12.90
2015,03,18,15,54,12.90
2015,03,18,15,55,12.90
2015,03,18,15,56,12.90
2015,03,18,15,57,13.00
2015,03,18,15,58,13.00
2015,03,18,15,59,13.00
2015,03,18,16,00,12.90
2015,03,18,16,01,12.90
2015,03,18,16,02,13.00
2015,03,18,16,03,13.00
2015,03,18,16,04,13.00
2015,03,18,16,05,13.10
2015,03,18,16,06,13.10
2015,03,18,16,07,13.20
2015,03,18,16,08,13.20
2015,03,18,16,09,13.20
2015,03,18,16,10,13.20
2015,03,18,16,11,13.20
2015,03,18,16,12,13.20
2015,03,18,16,13,13.20
2015,03,18,16,14,13.20
2015,03,18,16,15,13.20
2015,03,18,16,16,13.20
2015,03,18,16,17,13.30
2015,03,18,16,18,13.30
2015,03,18,16,19,13.30
2015,03,18,16,20,13.30
2015,03,18,16,21,13.20
2015,03,18,16,22,13.20
2015,03,18,16,23,13.20
2015,03,18,16,24,13.20
2015,03,18,16,25,13.10
2015,03,18,16,26,13.10
2015,03,18,16,27,13.10
2015,03,18,16,28,13.10
2015,03,18,16,29,13.20
2015,03,18,16,30,13.20
2015,03,18,16,31,13.20
2015,03,18,16,32,13.20
2015,03,18,16,33,13.20
2015,03,18,16,34,13.20
2015,03,18,16,35,13.20
2015,03,18,16,36,13.20
2015,03,18,16,37,13.20
2015,03,18,16,38,13.20
2015,03,18,16,39,13.20
2015,03,18,16,40,13.20
2015,03,18,16,41,13.30
2015,03,18,16,42,13.30
2015,03,18,16,43,13.30
2015,03,18,16,44,13.30
2015,03,18,16,45,13.30
2015,03,18,16,46,13.30
2015,03,18,16,47,13.30
2015,03,18,16,48,13.40
2015,03,18,16,49,13.40
2015,03,18,16,50,13.40
2015,03,18,16,51,13.40
2015,03,18,16,52,13.40
2015,03,18,16,53,13.40
2015,03,18,16,54,13.40
2015,03,18,16,55,13.40
2015,03,18,16,56,13.40
2015,03,18,16,57,13.40
2015,03,18,16,58,13.40
2015,03,18,16,59,13.40
2015,03,18,17,00,13.40
2015,03,18,17,01,13.40
2015,03,18,17,02,13.40
2015,03,18,17,03,13.40
2015,03,18,17,04,13.50
2015,03,18,17,05,13.40
2015,03,18,17,06,13.40
2015,03,18,17,07,13.40
2015,03,18,17,08,13.40
2015,03,18,17,09,13.40
2015,03,18,17,10,13.50
2015,03,18,17,11,13.60
2015,03,18,17,12,13.60
2015,03,18,17,13,13.60
2015,03,18,17,14,13.60
2015,03,18,17,15,13.60
2015,03,18,17,16,13.60
2015,03,18,17,17,13.60
2015,03,18,17,18,13.60
2015,03,18,17,19,13.60
2015,03,18,17,20,13.60
2015,03,18,17,21,13.60
2015,03,18,17,22,13.50
2015,03,18,17,23,13.40
2015,03,18,17,24,13.40
2015,03,18,17,25,13.30
2015,03,18,17,26,13.30
2015,03,18,17,27,13.30
2015,03,18,17,28,13.30
2015,03,18,17,29,13.30
2015,03,18,17,30,13.30
2015,03,18,17,31,13.30
2015,03,18,17,32,13.30
2015,03,18,17,33,13.30
2015,03,18,17,34,13.30
2015,03,18,17,35,13.40
2015,03,18,17,36,13.40
2015,03,18,17,37,13.40
2015,03,18,17,38,13.40
2015,03,18,17,39,13.40
2015,03,18,17,40,13.40
2015,03,18,17,41,13.40
2015,03,18,17,42,13.40
2015,03,18,17,43,13.40
2015,03,18,17,44,13.40
2015,03,18,17,45,13.40